DAL64D KLAX-LPPT

Flight info

Callsign DAL64D
Flight time N/A
Altitude 41000
Route OSHNN1 BEALE DCT EEVUN Q70 SAKES J100 EKR J84 SNY J114 ONL Q122 KATES DCT DBQ DCT SVM J70 JISTR/N0490F390 J70 JHW DCT HNK DCT HFD DCT ACK DCT SAILE DCT DOVEY/M084F390 DCT 41N060W 41N050W 43N040W/M084F410 42N030W 41N020W DCT ERPES/N0484F410 DCT LAZET LAZET2A
Aircraft A359/H-VGDW/C

Departure

Time N/A
Airport Los Angeles International Airport (KLAX)

Arrival

Time 2026-05-07 09:47
Airport Lisbon Humberto Delgado Airport (LPPT)
Time Latitude Longitude Altitude Speed Heading
2026-05-07 09:05 39.90763 -14.59563 40976 ft 520 kts 109°
2026-05-07 09:05 39.89715 -14.55019 40977 ft 521 kts 109°
2026-05-07 09:06 39.87625 -14.45987 40976 ft 521 kts 109°
2026-05-07 09:06 39.85529 -14.36966 40977 ft 521 kts 109°
2026-05-07 09:07 39.84470 -14.32417 40723 ft 522 kts 109°
2026-05-07 09:07 39.83419 -14.27913 40153 ft 523 kts 109°
2026-05-07 09:07 39.82355 -14.23364 39426 ft 526 kts 109°
2026-05-07 09:07 39.81296 -14.18848 38692 ft 529 kts 109°
2026-05-07 09:08 39.80576 -14.15782 38099 ft 531 kts 109°
2026-05-07 09:08 39.79135 -14.09654 36936 ft 533 kts 109°
2026-05-07 09:08 39.78413 -14.06593 36370 ft 534 kts 109°
2026-05-07 09:08 39.77316 -14.01950 35542 ft 536 kts 109°
2026-05-07 09:09 39.76216 -13.97299 34698 ft 537 kts 110°
2026-05-07 09:09 39.75121 -13.92679 33845 ft 539 kts 110°
2026-05-07 09:09 39.73647 -13.86483 32636 ft 540 kts 109°
2026-05-07 09:09 39.72898 -13.83336 32072 ft 540 kts 109°
2026-05-07 09:10 39.71798 -13.78726 31238 ft 539 kts 109°
2026-05-07 09:10 39.70681 -13.74053 30386 ft 538 kts 109°
2026-05-07 09:10 39.69582 -13.69461 29487 ft 537 kts 109°
2026-05-07 09:10 39.68462 -13.64787 28664 ft 533 kts 109°
2026-05-07 09:11 39.67374 -13.60254 27953 ft 528 kts 109°
2026-05-07 09:11 39.66282 -13.55718 27283 ft 521 kts 109°
2026-05-07 09:11 39.65201 -13.51235 26631 ft 515 kts 109°
2026-05-07 09:11 39.64149 -13.46878 26055 ft 508 kts 109°
2026-05-07 09:12 39.63090 -13.42507 25452 ft 502 kts 109°
2026-05-07 09:12 39.62057 -13.38247 25081 ft 491 kts 109°
2026-05-07 09:12 39.61050 -13.34104 24981 ft 484 kts 109°
2026-05-07 09:12 39.60030 -13.29918 24975 ft 486 kts 109°
2026-05-07 09:13 39.59004 -13.25717 24974 ft 487 kts 109°
2026-05-07 09:13 39.57982 -13.21536 24977 ft 487 kts 109°
2026-05-07 09:13 39.56967 -13.17391 24976 ft 487 kts 109°
2026-05-07 09:13 39.55934 -13.13179 24977 ft 488 kts 109°
2026-05-07 09:14 39.55070 -13.09662 24978 ft 488 kts 109°
2026-05-07 09:14 39.54051 -13.05518 24976 ft 488 kts 109°
2026-05-07 09:14 39.53016 -13.01318 24975 ft 488 kts 109°
2026-05-07 09:14 39.51976 -12.97103 24976 ft 488 kts 109°
2026-05-07 09:15 39.50953 -12.92967 24980 ft 489 kts 109°
2026-05-07 09:15 39.49909 -12.88755 24982 ft 489 kts 109°
2026-05-07 09:15 39.48863 -12.84538 24979 ft 489 kts 109°
2026-05-07 09:15 39.47834 -12.80401 24977 ft 489 kts 109°
2026-05-07 09:16 39.46784 -12.76182 24974 ft 490 kts 109°
2026-05-07 09:16 39.45744 -12.72013 24977 ft 490 kts 109°
2026-05-07 09:16 39.44688 -12.67790 24976 ft 490 kts 109°
2026-05-07 09:16 39.43646 -12.63626 24980 ft 491 kts 109°
2026-05-07 09:17 39.42606 -12.59480 24979 ft 491 kts 109°
2026-05-07 09:17 39.41548 -12.55268 24979 ft 491 kts 109°
2026-05-07 09:17 39.40489 -12.51057 24980 ft 491 kts 109°
2026-05-07 09:17 39.39435 -12.46876 24979 ft 492 kts 109°
2026-05-07 09:18 39.38367 -12.42648 24980 ft 492 kts 109°
2026-05-07 09:18 39.37314 -12.38483 24979 ft 492 kts 109°
2026-05-07 09:18 39.36254 -12.34299 24978 ft 493 kts 109°
2026-05-07 09:18 39.35177 -12.30055 24977 ft 493 kts 109°
2026-05-07 09:19 39.34115 -12.25879 24976 ft 493 kts 109°
2026-05-07 09:19 39.33039 -12.21654 24978 ft 494 kts 109°
2026-05-07 09:19 39.31958 -12.17416 24977 ft 494 kts 109°
2026-05-07 09:19 39.30887 -12.13228 24976 ft 494 kts 109°
2026-05-07 09:20 39.29808 -12.09012 24976 ft 495 kts 109°
2026-05-07 09:20 39.28732 -12.04817 24975 ft 495 kts 109°
2026-05-07 09:20 39.27656 -12.00626 24976 ft 495 kts 109°
2026-05-07 09:20 39.26575 -11.96427 24975 ft 496 kts 109°
2026-05-07 09:21 39.25481 -11.92184 24978 ft 496 kts 109°
2026-05-07 09:21 39.24389 -11.87952 24984 ft 496 kts 109°
2026-05-07 09:21 39.23305 -11.83761 24977 ft 496 kts 109°
2026-05-07 09:21 39.22206 -11.79521 24976 ft 497 kts 109°
2026-05-07 09:22 39.21133 -11.75385 24973 ft 497 kts 109°
2026-05-07 09:22 39.20029 -11.71140 24975 ft 497 kts 109°
2026-05-07 09:22 39.18934 -11.66935 24974 ft 498 kts 109°
2026-05-07 09:22 39.17836 -11.62723 24974 ft 498 kts 109°
2026-05-07 09:23 39.16729 -11.58488 24971 ft 498 kts 109°
2026-05-07 09:23 39.15626 -11.54272 24972 ft 498 kts 109°
2026-05-07 09:23 39.14509 -11.50015 24970 ft 499 kts 109°
2026-05-07 09:23 39.13406 -11.45813 24981 ft 499 kts 109°
2026-05-07 09:24 39.12291 -11.41574 24971 ft 499 kts 109°
2026-05-07 09:24 39.11168 -11.37314 24986 ft 500 kts 109°
2026-05-07 09:24 39.10058 -11.33108 24969 ft 500 kts 109°
2026-05-07 09:24 39.08931 -11.28844 24970 ft 500 kts 109°
2026-05-07 09:25 39.07816 -11.24635 24966 ft 500 kts 109°
2026-05-07 09:25 39.06688 -11.20382 24970 ft 500 kts 109°
2026-05-07 09:25 39.05562 -11.16146 24974 ft 501 kts 109°
2026-05-07 09:25 39.04447 -11.11958 24971 ft 501 kts 109°
2026-05-07 09:26 39.03311 -11.07698 24981 ft 501 kts 109°
2026-05-07 09:26 39.02183 -11.03471 24972 ft 501 kts 109°
2026-05-07 09:26 39.01041 -10.99206 24984 ft 502 kts 109°
2026-05-07 09:26 38.99919 -10.95018 24835 ft 499 kts 109°
2026-05-07 09:27 38.98793 -10.90824 24602 ft 495 kts 108°
2026-05-07 09:27 38.97667 -10.86635 24368 ft 494 kts 108°
2026-05-07 09:27 38.95484 -10.78541 23918 ft 452 kts 108°
2026-05-07 09:28 38.94494 -10.74879 23686 ft 425 kts 108°
2026-05-07 09:28 38.93525 -10.71296 23453 ft 424 kts 108°
2026-05-07 09:28 38.92626 -10.67718 23172 ft 424 kts 103°
2026-05-07 09:28 38.92240 -10.63976 22910 ft 420 kts 91°
2026-05-07 09:29 38.92124 -10.60268 22638 ft 418 kts 90°
2026-05-07 09:29 38.92021 -10.56574 22385 ft 416 kts 90°
2026-05-07 09:29 38.91906 -10.52862 22111 ft 414 kts 90°
2026-05-07 09:29 38.91787 -10.49192 21861 ft 412 kts 90°
2026-05-07 09:30 38.91664 -10.45508 21525 ft 410 kts 90°
2026-05-07 09:30 38.91540 -10.41892 21092 ft 408 kts 90°
2026-05-07 09:30 38.91366 -10.38244 20806 ft 402 kts 95°
2026-05-07 09:30 38.90797 -10.34772 20255 ft 403 kts 107°
2026-05-07 09:31 38.89809 -10.31374 19699 ft 403 kts 111°
2026-05-07 09:31 38.88751 -10.28049 18915 ft 409 kts 112°
2026-05-07 09:31 38.87651 -10.24638 18056 ft 416 kts 112°
2026-05-07 09:31 38.86523 -10.21162 17079 ft 421 kts 112°
2026-05-07 09:32 38.85397 -10.17703 16141 ft 426 kts 112°
2026-05-07 09:32 38.84251 -10.14193 15348 ft 419 kts 112°
2026-05-07 09:32 38.83148 -10.10821 14171 ft 404 kts 112°
2026-05-07 09:32 38.82091 -10.07595 13453 ft 383 kts 112°
2026-05-07 09:33 38.81075 -10.04493 12847 ft 379 kts 112°
2026-05-07 09:33 38.80079 -10.01461 12300 ft 357 kts 113°
2026-05-07 09:33 38.79141 -9.98606 11827 ft 334 kts 113°
2026-05-07 09:33 38.78269 -9.95954 11503 ft 310 kts 113°
2026-05-07 09:34 38.77466 -9.93513 11358 ft 304 kts 113°
2026-05-07 09:34 38.76650 -9.91039 11247 ft 303 kts 113°
2026-05-07 09:34 38.75827 -9.88542 11110 ft 303 kts 113°
2026-05-07 09:34 38.75012 -9.86075 10987 ft 302 kts 113°
2026-05-07 09:35 38.74190 -9.83587 10840 ft 301 kts 113°
2026-05-07 09:35 38.73372 -9.81113 10720 ft 300 kts 113°
2026-05-07 09:35 38.72568 -9.78686 10574 ft 300 kts 113°
2026-05-07 09:35 38.71750 -9.76218 10258 ft 299 kts 113°
2026-05-07 09:36 38.70949 -9.73802 9889 ft 297 kts 114°
2026-05-07 09:36 38.70141 -9.71366 9518 ft 294 kts 114°
2026-05-07 09:36 38.69346 -9.68976 9179 ft 293 kts 113°
2026-05-07 09:36 38.68547 -9.66573 8822 ft 291 kts 113°
2026-05-07 09:37 38.67760 -9.64210 8486 ft 290 kts 113°
2026-05-07 09:37 38.66968 -9.61833 8145 ft 288 kts 113°
2026-05-07 09:37 38.66190 -9.59497 7821 ft 286 kts 113°
2026-05-07 09:37 38.65409 -9.57154 7475 ft 284 kts 113°
2026-05-07 09:38 38.64639 -9.54848 7141 ft 282 kts 113°
2026-05-07 09:38 38.63862 -9.52522 6806 ft 281 kts 113°
2026-05-07 09:38 38.63103 -9.50253 6474 ft 279 kts 112°
2026-05-07 09:38 38.62339 -9.47970 6133 ft 278 kts 112°
2026-05-07 09:39 38.61585 -9.45719 5792 ft 276 kts 112°
2026-05-07 09:39 38.60837 -9.43488 5545 ft 271 kts 112°
2026-05-07 09:39 38.60112 -9.41327 5385 ft 252 kts 112°
2026-05-07 09:39 38.59447 -9.39350 5235 ft 231 kts 112°
2026-05-07 09:40 38.58836 -9.37531 5105 ft 220 kts 112°
2026-05-07 09:40 38.58241 -9.35754 4968 ft 212 kts 111°
2026-05-07 09:40 38.57681 -9.34092 4882 ft 200 kts 111°
2026-05-07 09:40 38.57153 -9.32478 4743 ft 191 kts 109°
2026-05-07 09:41 38.56982 -9.30832 4636 ft 191 kts 78°
2026-05-07 09:41 38.57373 -9.29234 4436 ft 191 kts 65°
2026-05-07 09:41 38.57899 -9.27671 4159 ft 191 kts 64°
2026-05-07 09:41 38.58420 -9.26125 4031 ft 190 kts 64°
2026-05-07 09:42 38.58944 -9.24582 4009 ft 189 kts 62°
2026-05-07 09:42 38.59843 -9.23384 3971 ft 185 kts 29°
2026-05-07 09:42 38.60996 -9.22710 3776 ft 182 kts 19°
2026-05-07 09:42 38.62178 -9.22134 3512 ft 179 kts 21°
2026-05-07 09:43 38.63317 -9.21510 3239 ft 179 kts 21°
2026-05-07 09:43 38.64457 -9.20900 2975 ft 178 kts 21°
2026-05-07 09:43 38.65596 -9.20296 2733 ft 175 kts 21°
2026-05-07 09:43 38.66715 -9.19697 2502 ft 170 kts 21°
2026-05-07 09:44 38.67787 -9.19123 2269 ft 166 kts 20°
2026-05-07 09:44 38.68824 -9.18570 2035 ft 156 kts 20°
2026-05-07 09:44 38.69792 -9.18054 1841 ft 146 kts 20°
2026-05-07 09:44 38.70713 -9.17561 1654 ft 140 kts 19°
2026-05-07 09:45 38.71596 -9.17088 1469 ft 138 kts 19°
2026-05-07 09:45 38.72488 -9.16578 1287 ft 141 kts 21°
2026-05-07 09:45 38.73389 -9.16090 1047 ft 140 kts 18°
2026-05-07 09:45 38.74300 -9.15629 845 ft 141 kts 21°
2026-05-07 09:46 38.75197 -9.15138 681 ft 141 kts 18°
2026-05-07 09:46 38.76084 -9.14679 507 ft 147 kts 19°
2026-05-07 09:46 38.77024 -9.14176 372 ft 143 kts 15°
2026-05-07 09:46 38.77833 -9.13759 373 ft 96 kts 22°
2026-05-07 09:47 38.78162 -9.13574 378 ft 45 kts 24°
2026-05-07 09:47 38.78347 -9.13386 375 ft 0 kts 50°
2026-05-07 09:47 38.78366 -9.13341 372 ft 14 kts 75°
2026-05-07 09:47 38.78360 -9.13285 370 ft 2 kts 139°
2026-05-07 09:48 38.78314 -9.13274 372 ft 16 kts 182°
2026-05-07 09:48 38.78185 -9.13332 365 ft 21 kts 204°
2026-05-07 09:48 38.78046 -9.13405 365 ft 21 kts 191°
2026-05-07 09:48 38.77903 -9.13385 356 ft 23 kts 168°
2026-05-07 09:49 38.77826 -9.13363 360 ft 11 kts 167°
2026-05-07 09:49 38.77750 -9.13342 357 ft 9 kts 163°
2026-05-07 09:49 38.77709 -9.13291 355 ft 5 kts 128°
2026-05-07 09:49 38.77690 -9.13253 350 ft 3 kts 122°
2026-05-07 09:50 38.77678 -9.13229 348 ft 0 kts 121°
2026-05-07 09:50 38.77678 -9.13228 348 ft 0 kts 121°
2026-05-07 09:51 38.77672 -9.13216 345 ft 3 kts 121°
2026-05-07 09:51 38.77670 -9.13212 345 ft 0 kts 121°